Regional Weather Roundup
Issued by NWS

Home | Current Version | Previous Version | Graphics & Text | Print | Product List | Glossary On
Versions: 1 2 3 4 5 6 7 8 9 10 11 12 13 14 15 16 17 18 19 20 21 22 23 24 25 26 27 28 29 30 31 32 33 34 35 36 37 38 39 40 41 42 43 44 45 46 47 48 49 50
000
ASUS43 KMPX 182110
RWRMN
WEATHER ROUNDUP FOR MINNESOTA
NATIONAL WEATHER SERVICE TWIN CITIES/CHANHASSEN MN
300 PM CST THU DEC 18 2014


NOTE: "FAIR" INDICATES FEW OR NO CLOUDS BELOW 12,000 FEET WITH NO
SIGNIFICANT WEATHER AND/OR OBSTRUCTIONS TO VISIBILITY. N/A MEANS
CURRENT SKY AND/OR WEATHER CONDITIONS ARE NOT AVAILABLE.

MNZ060>063-068>070-182200-
   Twin Cities Metro

CITY           SKY/WX    TMP DP  RH WIND       PRES   REMARKS
TWIN CITIES    FLURRIES  21  15  78 SE3       30.26S
ST PAUL        CLOUDY    22  16  78 S6        30.28S WCI  14
CRYSTAL        CLOUDY    22  15  75 SE3       30.25S
LAKEVILLE      CLOUDY    19  16  86 CALM      30.25S
EDEN PRAIRIE   CLOUDY    22  14  71 E3        30.25S
SOUTH ST PAUL  CLOUDY    22  16  76 S5        30.27R WCI  16
LAKE ELMO      CLOUDY    23  19  86 S6        30.27R WCI  16
$$
MNZ001>005-007-008-013>017-022>024-027-028-182200-
   Northwest Minnesota

CITY           SKY/WX    TMP DP  RH WIND       PRES   REMARKS
BEMIDJI        CLOUDY    17  13  82 S9        30.19F WCI   6
HALLOCK        PTCLDY    19  16  86 S16       30.18S WCI   5
ROSEAU         CLEAR     21  16  79 S9        30.20R WCI  11
WARROAD        MOCLDY    21  16  79 SE8       30.20S WCI  12
THIEF RVR FALL CLOUDY    19  12  73 SE10      30.19S WCI   8
CROOKSTON      CLOUDY    19  16  86 S13       30.21R WCI   7
FOSSTON        CLOUDY    18  14  86 S8        30.19F WCI   7
DETROIT LAKES  PTSUNNY   19  16  86 S10       30.19F WCI   8
MOORHEAD       CLOUDY    19  18  93 S12       30.21R WCI   7
PARK RAPIDS    CLOUDY    19  13  77 S7        30.19F WCI  10
MAHNOMEN       CLOUDY    19  14  80 SE8       30.18F WCI   9
$$
MNZ006-009>011-018-025>026-182200-
   North Central Minnesota

CITY           SKY/WX    TMP DP  RH WIND       PRES   REMARKS
BAUDETTE       PTCLDY    17  11  77 S8        30.21R WCI   7
FLAG ISLAND    CLEAR     16  12  86 S8        30.20S WCI   5
INTL FALLS     CLOUDY    20  14  77 SE5       30.23F WCI  13
WASKISH        CLOUDY    19  16  86 SE6       30.22S WCI  11
BIG FORK       CLOUDY    21  18  86 S6        30.22S WCI  14
LONGVILLE      CLOUDY    19  16  86 SE8       30.22S WCI   9
GRAND RAPIDS   CLOUDY    19  18  93 S6        30.21S WCI  11
CRANE LAKE     CLOUDY    19  16  86 CALM      30.26S
ORR            CLOUDY    19  16  86 CALM      30.21S
COOK           CLOUDY    19  18  93 CALM      30.23S
WALKER         CLOUDY    17  13  83 SE6       30.21S WCI   9
$$
MNZ012-019>021-037-182200-
   Northeast Minnesota

CITY           SKY/WX    TMP DP  RH WIND       PRES   REMARKS
DULUTH         CLOUDY    25  17  72 SE8       30.21R WCI  16
ELY            CLOUDY    21  18  86 E3        30.22F
HIBBING        CLOUDY    23  17  78 CALM      30.22S
EVELETH        CLOUDY    25  21  86 CALM      30.23R
DULUTH HARBOR  CLOUDY    28  19  69 CALM      30.28R
TWO HARBORS    CLOUDY    30  23  74 SE7       30.21S WCI  23
SILVER BAY     CLOUDY    27  21  80 NE6       30.23R WCI  20
GRAND MARAIS     N/A     27  13  55 CALM      30.30S
G MARAIS ARPRT CLEAR     19  10  68 CALM      30.22S
$$
MNZ029>031-032-039>041-046>048-054>057-064-182200-
   West Central Minnesota

CITY           SKY/WX    TMP DP  RH WIND       PRES   REMARKS
FERGUS FALLS   CLOUDY    18  12  79 SE9       30.23F WCI   6
WHEATON        PTSUNNY   18  14  86 SE13      30.21F WCI   4
MORRIS         CLOUDY    19  16  86 SE10      30.20R WCI   8
ALEXANDRIA     CLOUDY    18  12  77 SE7       30.20F WCI   9
ELBOW LAKE     CLOUDY    18  14  85 SE10      30.19F WCI   6
WADENA         PTSUNNY   18  12  79 NW6       30.20S WCI   9
GLENWOOD       CLOUDY    19  16  86 SE5       30.21S WCI  13
APPLETON       CLOUDY    21  18  86 SE5       30.21S WCI  15
BENSON         CLOUDY    19  16  86 SE8       30.21F WCI   9
ORTONVILLE     CLOUDY    19  16  86 SE8       30.19S WCI   9
MADISON        PTSUNNY   25  21  86 SE6       30.20S WCI  18
WILLMAR        FAIR      19  14  79 SE8       30.23S WCI   9
$$
MNZ033>034-036-042>043-049>051-058-059-182200-
   Central Minnesota

CITY           SKY/WX    TMP DP  RH WIND       PRES   REMARKS
ST CLOUD       CLOUDY    21  13  71 SE3       30.24F
SAUK CENTRE    CLOUDY    19  13  78 S7        30.23R WCI   9
PAYNESVILLE    PTSUNNY   17  12  82 E6        30.23S WCI   8
AITKIN         MIX PCPN  25  18  74 CALM      30.21S
PINE RIVER     CLOUDY    18  16  93 SE6       30.25S FOG     WCI   9
BRAINERD       CLOUDY    19  15  84 W7        30.23S WCI  10
STAPLES        CLOUDY    18  12  79 S5        30.22R WCI  11
LONG PRAIRIE   FAIR      18  12  79 SE6       30.23R WCI   9
LITTLE FALLS   FLURRIES  19  14  79 CALM      30.24S
LITCHFIELD     FAIR      19  16  86 SE6       30.23F WCI  11
BUFFALO        CLOUDY    21  14  75 CALM      30.26S
MAPLE LAKE     CLOUDY    21  16  81 CALM      30.25F
$$
MNZ037-044-045-052-053-182200-
   East Central Minnesota

CITY           SKY/WX    TMP DP  RH WIND       PRES   REMARKS
PRINCETON      CLOUDY    21  18  86 CALM      30.25S
MORA           CLOUDY    19  16  86 CALM      30.27R
CAMBRIDGE      FLURRIES  23  16  74 CALM      30.24S
RUSH CITY      CLOUDY    21  18  86 CALM      30.26S
MOOSE LAKE     CLOUDY    25  19  80 S3        30.22S
HINCKLEY       CLOUDY    23  19  86 CALM      30.25S
CLOQUET        CLOUDY    25  18  74 CALM      30.22R
MCGREGOR       CLOUDY    23  21  93 SE6       30.23S WCI  16
$$
MNZ071>073-080-081-089-090-097-098-182200-
   Southwest Minnesota

CITY           SKY/WX    TMP DP  RH WIND       PRES   REMARKS
MONTEVIDEO     CLOUDY    19  18  93 S6        30.22S WCI  11
GRANITE FALLS  CLOUDY    20  17  85 E6        30.23S WCI  13
CANBY          CLOUDY    22  20  91 SE7       30.19S WCI  14
MARSHALL       PTSUNNY   23  18  80 SE3       30.19S
REDWOOD FALLS  CLOUDY    21  15  78 SE7       30.22F WCI  12
OLIVIA         CLOUDY    21  18  86 SE6       30.22S WCI  14
PIPESTONE      PTSUNNY   25  21  86 CALM      30.15S
WINDOM         CLOUDY    23  18  80 CALM      30.20S
WORTHINGTON    CLOUDY    25  19  80 S5        30.18S WCI  19
JACKSON        CLOUDY    27  19  74 CALM      30.20R
TRACY          CLOUDY    25  21  85 CALM      30.19S
SLAYTON        CLOUDY    24  22  90 CALM      30.17S
$$
MNZ065>067-074>077-082>085-091>093-182200-
   South Central Minnesota

CITY           SKY/WX    TMP DP  RH WIND       PRES   REMARKS
MANKATO        PTSUNNY   21  14  73 CALM      30.24S
NEW ULM        CLOUDY    21  16  79 CALM      30.24S
ST JAMES       CLOUDY    25  18  74 SE3       30.24S
FAIRMONT       CLOUDY    21  16  79 CALM      30.22R
GLENCOE        CLOUDY    23  17  80 E5        30.24S WCI  16
FARIBAULT      CLOUDY    21  16  79 CALM      30.25R
OWATONNA       MOSUNNY   21  14  73 CALM      30.23S
WASECA         PTSUNNY   23  18  80 CALM      30.25R
ALBERT LEA     MOSUNNY   23  18  80 CALM      30.22R
$$
MNZ078>079-086>088-094>096-182200-
   Southeast Minnesota

CITY           SKY/WX    TMP DP  RH WIND       PRES   REMARKS
ROCHESTER      CLOUDY    21  15  78 SE3       30.23R
RED WING       CLOUDY    25  18  74 CALM      30.26S
STANTON        CLOUDY    23  16  74 CALM      30.24S
DODGE CENTER   CLOUDY    21  16  79 SE3       30.22S
WINONA         CLOUDY    27  19  74 CALM      30.27S
AUSTIN         PTSUNNY   21  16  79 CALM      30.23R
PRESTON        CLOUDY    21  16  81 CALM      30.23S
$$
ABBREVIATIONS USED IN REMARKS
   TC - TEMPERATURES IN CELSIUS
  WCI - WIND CHILL INDEX
   HX - HEAT INDEX
  VSB - VISIBILITY
$$


USA.gov is the U.S. government's official web portal to all federal, state and local government web resources and services.